Powrót do katalogu

CZ-6A DEB

AktywnySSO
NORAD 54498·DEBRIS·🇨🇳 China

Wystrzelony Nov 11, 2022 z Taiyuan Satellite Launch Center

Loading…

Następne Przeloty (najbliższe 24 godziny)

TLE

ŚwieżeSource: Space-Track

Epoka: Sep 14, 2026, 02:58 UTC

1 54498U 22151JA  26257.12404492  .00004061  00000-0  10807-2 0  9998
2 54498  98.7584 314.8097 0024092  61.0584 299.3020 14.48934379200803

Śledź CZ-6A DEB w czasie rzeczywistym z AllMySat

Download on the App Store